Regional Weather Roundup
Issued by NWS

Home | Current Version | Previous Version | Text Only | Print | Product List | Glossary Off
Versions: 1 2 3 4 5 6 7 8 9 10 11 12 13 14 15 16 17 18 19 20 21 22 23 24 25 26 27 28 29 30 31 32 33 34 35 36 37 38 39 40 41 42 43 44 45 46 47 48 49 50

624
ASUS43 KIND 180359
RWRIN

WEATHER ROUNDUP FOR INDIANA
NATIONAL WEATHER SERVICE INDIANAPOLIS IN
1100 PM EST SAT FEB 17 2018

NOTE: "FAIR" INDICATES FEW OR NO CLOUDS BELOW 12,000 FEET WITH NO
SIGNIFICANT WEATHER AND/OR OBSTRUCTIONS TO VISIBILITY.

* - STATION DOES NOT REPORT WEATHER SUCH AS PRECIPITATION OR FOG.

+ - STATION NOT QUALITY CONTROLLED BY THE NATIONAL WEATHER SERVICE.
    USE DATA WITH CAUTION...ESPECIALLY DEWPOINT AND RELATIVE
    HUMIDITY OBSERVATIONS.

INZ001>003-010>013-019-020-180500-
NORTHWEST INDIANA

CITY           SKY/WX    TMP DP  RH WIND       PRES   REMARKS
GARY /AIRPORT/ CLOUDY    32  27  80 W17G31    30.12R WCI  21
KNOX *+        FAIR      30  27  86 W9        30.08R WCI  22
MONTICELLO +   CLOUDY    31  27  84 NW16      30.11R WCI  20

$$

LMZ046-743>745-180500-
SOUTHERN LAKE MICHIGAN

STATION/POSITION TIME  TEMP    WIND        PRES    WAVE
                       AIR SEA DIR/SP/G            HT
                 (UTC) (F)     (DEG/KT/KT) (MB)    (FT)
BURNS HARBOR     0340   31     290/ 18/ 23 1019.3R
MICHIGAN CITY    0330   30     270/ 21/ 23   N/A

$$

INZ004-005-014>016-021>024-180500-
NORTH CENTRAL INDIANA

CITY           SKY/WX    TMP DP  RH WIND       PRES   REMARKS
GOSHEN         CLOUDY    33  29  85 W14       30.05R WCI  23
PERU/GRISSOM   CLOUDY    32  32 100 NW18      30.08R WCI  20
ROCHESTER +    CLOUDY    34  30  86 W7        30.08R WCI  28
SOUTH BEND     CLOUDY    31  28  89 W15       30.06R WCI  20
WARSAW +       CLOUDY    32  30  93 W13       30.06R WCI  22

$$

INZ006>009-017-018-025>027-180500-
NORTHEAST INDIANA

CITY           SKY/WX    TMP DP  RH WIND       PRES   REMARKS
AUBURN +       CLOUDY    32  32 100 W12       30.03R WCI  23
FORT WAYNE     CLOUDY    34  31  88 W15       30.06R WCI  24
KENDALLVILLE + CLOUDY    32  31  94 W9        30.02R WCI  24

$$

INZ028-029-035-036-043>045-051>053-180500-
WEST CENTRAL INDIANA

CITY           SKY/WX    TMP DP  RH WIND       PRES   REMARKS
LAFAYETTE      CLOUDY    31  27  85 NW12G22   30.14R WCI  22
TERRE HAUTE    FAIR      34  30  85 W7        30.20R WCI  28

$$

INZ030>032-037>040-046>048-054>057-064-065-180500-
CENTRAL INDIANA

CITY           SKY/WX    TMP DP  RH WIND       PRES   REMARKS
FRANKFORT +    CLOUDY    34  30  85 NW16      30.14R WCI  24
GREENWOOD *+   CLOUDY   N/A N/A N/A NW17G24   30.14R
INDIANAPOLIS   CLOUDY    34  28  79 NW16G24   30.14R WCI  24
-EAGLE CREEK   CLOUDY    34  28  79 W12       30.13R WCI  25
KOKOMO +       CLOUDY    32  28  85 W18       30.10R WCI  20
MT COMFORT *+  CLOUDY    32  32 100 W20G26    30.12R WCI  20
SHELBYVILLE    CLOUDY    36  28  73 NW21G28   30.13R WCI  25
ZIONSVILLE +   CLOUDY    32  28  86 NW16G25   30.13R WCI  21

$$

INZ033-034-041-042-049-050-058-059-180500-
EAST CENTRAL INDIANA

CITY           SKY/WX    TMP DP  RH WIND       PRES   REMARKS
MUNCIE         CLOUDY    35  30  82 W12       30.09R WCI  27
RICHMOND +     CLOUDY    32  32 100 W17       30.09R WCI  21

$$

INZ060-061-067>069-081>083-085>088-180500-
SOUTHWEST INDIANA

CITY           SKY/WX    TMP DP  RH WIND       PRES   REMARKS
EVANSVILLE     FAIR      35  35 100 W3        30.25R
HUNTINGBURG +  FAIR      35  33  92 W7        30.22R WCI  29
WASHINGTON +   CLOUDY    36  32  87 W6        30.22R WCI  31

$$

INZ062-063-066-070>080-084-089>092-180500-
SOUTH CENTRAL AND SOUTHEAST INDIANA

CITY           SKY/WX    TMP DP  RH WIND       PRES   REMARKS
BLOOMINGTON    FAIR      34  28  79 NW12      30.16R WCI  25
MADISON *+     CLOUDY    36  36 100 W6        30.16S WCI  31
SEYMOUR +      CLOUDY    39  32  75 NW10G16   30.16R WCI  32

$$





USA.gov is the U.S. government's official web portal to all federal, state and local government web resources and services.